RH
63 64 62 62 62 62 62 61 60 58 54 50 46 42 39 36 33 30 28 26 24 21 20 18 16 15 14 12 11 10 8 8 7 7 7 7 7 8 8 8 9 9 10 10 10 10 10 10 10 10 10 10 10 10 9 8 8 8 7 7 7 6 6 6 6 6 6 6 6 6 5 4 4 4 4 4 5 7 10 16 28 42 57 60 64 70
60 61 62 61 61 62 62 62 60 58 55 52 48 44 40 38 34 32 29 26 24 22 20 18 16 15 14 12 11 10 8 8 7 7 7 7 7 8 8 8 9 9 9 10 10 10 10 10 10 10 10 10 10 10 9 8 8 8 8 7 7 6 6 6 6 6 6 6 6 6 5 4 4 4 4 4 4 6 8 12 22 34 51 57 64 72
56 58 60 61 61 62 62 62 60 58 55 52 49 45 42 38 35 32 30 26 24 22 20 18 16 15 14 12 11 10 9 8 7 7 6 6 7 7 8 8 8 9 9 9 10 10 10 10 10 10 10 10 10 10 9 9 8 8 8 7 7 7 6 6 6 6 6 6 6 6 5 5 4 4 4 4 4 4 6 9 16 27 43 53 61 69
53 54 58 60 61 61 62 62 60 58 55 52 49 45 42 39 36 33 30 27 24 22 20 18 17 15 14 12 11 10 9 8 8 7 6 6 6 7 7 8 8 8 9 9 9 10 10 10 10 10 10 10 10 10 10 9 8 8 8 7 7 7 6 6 6 6 6 6 6 6 5 5 5 4 4 4 4 4 4 7 12 20 35 48 58 68
52 52 55 58 60 61 62 62 60 58 55 52 49 46 42 39 36 33 30 27 24 22 20 18 17 15 14 12 11 10 9 8 8 7 6 6 6 6 7 7 8 8 8 9 9 10 10 10 10 10 10 10 10 10 10 9 8 8 8 8 7 7 6 6 6 6 6 6 6 6 5 5 5 5 4 4 4 4 4 5 8 15 27 42 55 66
52 51 52 55 58 60 61 61 60 58 55 52 49 46 42 39 36 33 30 27 24 22 20 18 16 15 14 12 11 10 9 8 8 7 6 6 6 6 6 7 7 8 8 8 9 9 9 10 10 10 10 10 10 10 10 9 9 8 8 8 7 7 6 6 6 6 6 6 6 6 5 5 5 5 5 4 4 4 3 4 6 11 20 36 50 61
52 51 51 53 56 58 60 60 59 58 55 52 49 46 42 39 36 32 30 27 24 22 20 18 16 15 14 12 11 10 9 8 8 7 6 6 6 6 6 6 7 7 8 8 8 8 9 9 10 10 10 10 10 10 10 9 9 8 8 8 7 7 7 6 6 6 6 6 6 6 5 5 5 5 5 5 4 4 3 3 4 9 17 31 43 54
52 52 51 52 54 56 58 59 58 57 54 52 49 46 42 39 35 32 29 26 24 22 20 18 16 15 13 12 11 10 9 8 8 7 6 6 6 6 6 6 6 7 7 8 8 8 8 9 10 10 10 10 10 10 9 9 9 8 8 8 7 7 7 6 6 6 6 6 6 6 5 5 6 6 6 5 4 4 3 3 3 6 14 25 37 48
51 52 51 51 52 54 56 58 57 56 54 51 48 45 42 38 35 32 29 26 24 21 19 18 16 14 13 12 10 10 9 8 8 7 6 6 6 6 6 6 6 6 7 7 8 8 8 8 9 9 10 10 10 10 9 9 9 8 8 8 8 7 7 7 6 6 6 6 6 6 5 5 6 6 6 5 5 4 4 3 3 4 9 18 30 42
49 50 50 49 50 52 54 56 56 55 53 50 48 45 42 38 34 32 28 26 23 21 18 17 15 14 12 11 10 10 8 8 7 7 6 6 6 6 6 6 6 6 6 7 7 8 8 8 8 9 9 10 10 9 9 9 9 8 8 8 8 7 7 7 6 6 6 6 6 5 5 5 5 6 6 6 5 4 4 4 3 3 5 11 24 39
47 47 48 48 48 50 52 54 54 54 52 50 48 45 42 38 34 31 28 25 23 20 18 16 15 13 12 11 10 9 8 8 7 7 6 6 6 6 5 5 6 6 6 6 7 7 8 8 8 8 9 9 9 9 9 9 8 8 8 8 8 7 7 7 7 6 6 6 6 5 5 5 5 6 6 6 5 5 4 4 4 3 4 8 20 38
45 45 45 46 47 48 50 51 52 52 51 49 47 44 41 38 34 31 28 25 22 20 18 16 14 13 12 10 10 9 8 8 7 7 6 6 6 6 5 5 5 6 6 6 6 7 7 8 8 8 8 9 9 9 9 9 8 8 8 8 8 7 7 7 7 6 6 6 6 6 5 5 5 6 8 6 6 5 5 4 4 4 3 6 18 36
45 44 44 45 46 47 48 49 50 50 49 48 46 44 41 38 34 31 28 25 22 20 17 16 14 12 11 10 10 8 8 7 7 6 6 6 6 5 5 5 5 5 5 6 6 6 7 7 8 8 8 8 9 9 9 8 8 8 8 8 8 7 7 7 7 7 6 6 6 6 5 5 5 5 7 8 7 6 5 7 7 6 4 4 16 34
46 44 43 44 45 46 46 47 48 48 48 47 46 44 41 38 34 31 28 25 22 19 17 15 14 12 11 10 9 8 8 7 7 6 6 6 6 5 5 5 5 5 5 5 6 6 6 7 7 8 8 8 8 8 8 8 8 8 8 8 8 7 7 7 7 7 7 6 6 6 5 5 5 7 11 14 10 6 5 7 8 6 4 4 13 29
48 45 44 44 44 44 45 45 46 46 46 46 45 43 41 38 34 31 28 25 22 19 17 16 14 12 11 10 9 8 8 7 7 6 6 6 6 5 5 5 5 5 5 5 5 6 6 6 7 7 8 8 8 8 8 8 8 8 8 8 8 7 7 7 7 7 7 6 6 6 5 5 8 13 20 20 13 6 5 6 6 6 6 4 9 22
50 47 44 44 44 44 43 44 44 45 45 44 44 42 41 38 35 31 28 25 22 20 17 16 14 13 11 10 10 8 8 7 7 6 6 6 6 5 5 5 5 4 4 5 5 5 6 6 6 7 7 8 8 8 8 8 8 8 8 8 8 7 7 7 7 7 7 6 6 6 5 7 14 22 25 17 10 6 6 6 8 10 10 5 6 15
49 48 45 44 43 42 42 42 42 43 43 43 43 42 41 38 35 32 28 26 23 20 18 16 14 13 12 11 10 9 8 8 7 6 6 6 6 5 5 5 4 4 4 4 5 5 5 6 6 6 7 7 8 8 8 8 8 8 8 8 8 7 7 7 7 7 7 6 6 6 5 8 16 22 21 13 10 8 6 6 8 11 14 7 5 10
46 47 46 44 42 41 40 40 41 42 42 42 42 41 40 38 35 32 29 26 23 20 18 16 15 14 12 11 10 9 8 8 7 7 6 6 6 5 5 5 4 4 4 4 4 4 5 5 6 6 6 7 7 8 8 8 8 8 8 8 8 7 7 7 7 7 7 6 6 6 5 8 12 15 13 14 16 14 7 6 6 8 10 5 4 6
41 44 44 43 42 40 39 39 39 40 40 40 40 40 39 38 35 32 29 26 24 21 18 16 15 14 13 12 10 9 8 8 7 7 6 6 6 5 5 5 4 4 4 4 4 4 4 5 5 6 6 6 7 7 8 8 8 8 8 8 7 7 7 7 7 7 6 6 6 6 5 5 7 8 6 8 14 16 8 6 5 6 6 4 4 5
35 39 42 42 41 40 38 38 38 38 38 39 39 38 38 36 35 32 30 27 24 21 19 17 16 14 13 12 11 10 9 8 8 7 6 6 6 5 5 5 4 4 4 4 4 4 4 4 5 5 6 6 6 7 7 8 8 8 8 7 7 7 7 7 7 6 6 6 6 6 6 5 6 6 4 4 7 9 7 6 6 5 4 5 4 5
29 33 37 40 40 40 38 36 36 36 36 37 37 37 36 35 34 32 30 27 25 22 20 18 16 15 14 12 11 10 9 8 8 7 7 6 6 5 5 5 4 4 4 4 4 4 4 4 4 5 5 6 6 6 7 7 7 8 7 7 7 7 7 7 7 6 6 6 6 6 6 5 5 4 4 4 5 6 6 7 7 6 5 4 4 6
24 28 32 35 38 39 38 36 34 34 34 35 35 35 35 34 33 32 30 28 26 23 20 18 17 15 14 12 11 10 9 8 8 7 7 6 6 6 5 5 4 4 4 4 4 4 4 4 4 4 5 5 6 6 7 7 7 7 7 7 7 7 7 7 7 6 6 6 6 6 6 5 5 4 4 4 4 6 7 9 9 8 6 4 4 6
22 24 26 30 34 36 37 36 35 34 33 33 34 34 34 34 33 32 30 28 26 24 21 19 17 16 14 13 11 10 10 8 8 7 7 6 6 5 5 4 4 4 4 4 4 4 4 4 4 4 4 5 5 6 6 7 7 7 7 7 7 7 7 7 6 6 6 6 6 6 6 6 6 6 5 4 4 6 9 12 13 11 7 5 4 5
20 21 22 25 28 32 34 35 34 33 32 32 32 32 33 33 32 32 30 28 26 24 22 19 18 16 14 13 12 10 10 8 8 8 7 6 6 6 5 5 4 4 4 4 4 4 4 4 4 4 4 4 5 5 6 6 7 7 7 7 7 7 7 6 6 6 6 6 6 6 6 8 10 10 8 6 6 8 12 16 17 14 9 6 4 4
18 19 21 22 24 27 30 32 33 32 31 30 31 31 32 32 32 31 30 28 26 24 22 20 18 16 15 13 12 10 9 8 8 7 7 6 6 6 5 4 4 4 4 4 4 4 4 4 4 4 4 4 4 5 6 6 6 6 7 7 7 7 6 6 6 6 6 6 6 6 7 8 11 14 14 14 12 11 13 18 19 16 10 6 4 4
18 17 19 20 22 24 26 28 30 31 30 30 30 30 30 31 31 30 30 28 26 24 22 21 19 17 16 14 12 11 10 8 8 7 7 6 6 6 5 4 4 4 4 4 4 4 3 3 3 4 4 4 4 4 5 6 6 6 6 6 6 6 6 6 6 6 6 6 6 6 7 10 15 18 18 20 20 16 13 16 16 15 10 6 4 4
18 15 16 19 20 22 23 25 27 29 29 29 29 29 29 30 30 30 29 28 26 24 23 21 19 18 16 14 12 11 10 8 8 7 6 6 6 5 5 4 4 4 4 4 4 3 3 3 3 3 4 4 4 4 5 5 6 6 6 6 6 6 6 6 6 6 6 6 6 6 6 15 21 24 19 21 21 18 13 13 13 12 9 7 5 4
20 14 14 17 19 20 21 23 24 26 27 27 27 27 27 28 28 29 28 28 26 24 23 21 20 18 16 14 13 11 10 8 8 7 6 6 6 5 5 4 4 4 4 4 4 3 3 3 3 3 3 4 4 4 4 5 5 6 6 6 6 6 6 6 6 6 6 6 6 6 5 13 22 26 21 21 20 17 12 10 11 11 10 8 6 4
19 14 13 15 17 19 20 21 22 24 25 26 26 26 26 26 27 27 27 26 26 24 23 21 20 18 16 14 13 11 10 8 8 7 6 6 6 5 5 4 4 4 4 4 3 3 3 3 3 3 3 3 4 4 4 4 5 5 6 6 6 6 6 6 6 6 6 6 6 6 6 11 19 26 26 22 19 16 10 8 9 11 10 9 7 5
16 13 12 13 15 17 19 20 21 22 23 24 24 24 24 25 25 26 26 25 24 24 22 21 20 18 16 14 13 12 10 9 8 7 6 6 6 5 5 4 4 4 4 4 3 3 3 3 3 3 3 3 3 4 4 4 4 5 6 6 6 6 6 6 6 6 6 6 6 6 7 11 18 25 29 26 21 15 8 6 9 12 12 10 8 6
14 12 11 12 13 15 16 18 20 21 22 22 23 23 23 23 24 24 24 24 23 23 22 21 19 18 16 15 13 12 10 9 8 7 6 6 6 5 5 4 4 4 4 3 3 3 3 3 3 3 3 3 3 3 4 4 4 5 5 6 6 6 6 6 6 6 6 6 6 6 6 8 14 22 32 28 22 15 8 6 10 14 15 12 9 6
13 12 11 11 12 13 14 16 18 20 21 22 22 22 22 22 22 22 22 22 22 22 21 20 19 18 16 15 14 12 11 9 8 7 7 6 6 6 5 4 4 4 4 3 3 3 3 3 3 3 3 3 3 3 3 4 4 4 5 5 6 6 6 6 6 6 6 6 6 6 6 5 8 19 41 39 29 16 6 7 12 18 18 15 11 7
13 12 11 11 11 12 13 14 16 18 19 20 21 21 21 21 20 20 20 20 20 20 20 19 18 18 16 15 14 12 11 9 8 8 7 6 6 6 5 4 4 4 4 3 3 3 3 3 3 3 3 3 3 3 3 3 4 4 4 5 5 6 6 6 6 6 6 6 6 6 6 6 8 18 43 52 40 21 8 8 14 20 22 18 13 9
12 11 11 11 11 11 12 12 14 15 17 18 20 20 21 20 19 18 18 18 18 18 18 18 18 17 16 15 14 12 11 9 8 8 7 7 6 6 5 4 4 4 4 3 3 3 3 3 3 3 3 3 3 3 3 3 4 4 4 5 5 5 6 6 6 6 6 6 6 6 6 6 8 16 34 55 49 29 11 10 16 22 24 20 15 10
13 12 11 11 11 11 12 12 12 13 14 16 18 19 20 20 18 18 17 16 16 16 17 17 16 16 16 15 14 13 11 10 8 8 7 7 6 6 5 4 4 4 4 3 3 3 3 3 3 3 3 2 3 3 3 3 3 4 4 4 5 5 5 5 5 5 6 6 6 6 6 6 8 14 26 49 51 38 18 14 17 23 26 21 16 12
14 12 12 12 11 11 11 12 12 12 13 14 16 17 18 18 18 17 16 16 15 15 15 15 15 15 14 14 13 12 11 10 8 8 7 7 6 5 5 4 4 4 4 3 3 3 3 3 3 2 2 2 2 3 3 3 3 4 4 4 4 5 5 5 5 5 5 5 6 6 6 6 7 12 21 37 45 42 22 16 18 24 26 22 17 13
16 14 12 12 11 11 11 11 12 12 12 13 14 15 16 17 18 17 16 15 15 14 14 14 14 14 14 13 12 11 10 9 8 8 7 6 6 5 5 4 4 4 4 3 3 3 3 3 2 2 2 2 2 2 3 3 3 3 4 4 4 5 5 5 5 5 5 5 6 6 6 6 6 9 16 34 42 38 20 16 20 25 26 22 17 14
21 17 14 12 11 11 11 11 11 12 12 12 13 13 14 16 16 16 16 15 14 14 13 13 13 12 12 12 11 10 10 9 8 8 7 6 6 5 5 4 4 4 4 3 3 3 3 2 2 2 2 2 2 2 2 3 3 3 3 4 4 4 5 5 5 5 5 5 5 6 6 6 6 8 13 30 36 31 13 14 20 26 24 20 17 14
29 22 17 14 12 11 10 10 11 11 11 12 12 12 13 14 15 15 16 15 14 14 13 12 12 12 12 11 10 10 9 8 8 8 7 6 6 5 5 4 4 4 4 3 3 3 3 2 2 2 2 2 2 2 2 2 3 3 3 4 4 4 4 5 5 5 5 5 5 5 6 6 6 8 11 18 19 15 5 12 19 24 22 18 16 14
37 31 24 18 14 12 10 10 10 10 10 11 11 12 12 13 14 14 14 14 14 14 13 12 12 11 11 10 10 10 9 8 8 7 7 6 6 5 5 4 4 4 4 3 3 3 3 2 2 2 2 2 2 2 2 2 3 3 3 3 4 4 4 4 5 5 5 5 5 5 6 6 7 8 10 14 12 9 4 10 17 22 20 16 14 13
43 38 33 26 19 15 12 11 10 10 10 10 11 12 12 12 12 13 13 13 13 13 12 12 11 11 10 10 10 9 8 8 7 6 6 6 6 5 5 4 4 4 4 3 3 2 3 3 2 2 2 2 2 2 2 2 2 3 3 3 4 4 4 4 4 5 5 7 6 5 6 6 7 8 10 13 21 25 18 14 15 17 16 14 13 12
51 46 42 36 30 24 18 15 12 11 10 10 10 11 12 12 12 12 12 12 12 12 12 12 11 11 10 10 9 8 8 7 6 6 5 5 5 5 5 5 4 4 4 3 3 3 4 4 3 2 2 2 2 2 2 2 2 3 3 3 4 4 4 4 4 5 5 8 6 6 10 8 8 8 10 27 49 59 44 26 17 14 13 12 11 11
60 56 52 48 44 38 31 22 16 12 10 10 10 10 11 11 12 12 12 12 12 12 11 11 11 10 10 10 9 8 7 7 6 5 4 4 5 5 5 4 4 4 4 3 3 4 4 4 4 3 2 2 2 2 2 2 2 2 3 3 3 3 4 4 4 4 4 4 4 6 11 10 10 10 15 42 66 74 57 32 19 15 14 12 11 11
65 63 60 57 53 48 40 30 20 14 11 10 10 10 10 10 11 11 11 11 11 11 10 10 10 10 9 8 8 7 6 5 4 4 3 3 4 3 3 3 4 4 4 4 4 5 6 6 5 4 3 2 2 2 2 2 2 2 2 3 3 3 4 4 4 4 5 5 5 7 10 8 8 12 16 37 54 59 45 28 18 16 16 15 12 11
66 65 64 62 58 52 45 34 24 16 12 11 10 9 9 10 10 10 11 10 10 10 10 10 9 8 7 6 6 5 4 4 4 4 4 5 6 8 10 10 9 7 5 4 4 5 6 6 6 4 3 3 2 2 2 2 2 2 2 3 4 4 4 10 8 5 7 6 6 8 14 10 9 10 13 22 28 32 30 22 17 14 17 17 14 12
67 66 66 64 60 54 48 38 28 19 14 12 10 8 8 8 9 10 10 10 10 10 9 8 6 7 9 12 13 12 8 9 12 17 24 30 35 40 44 48 47 40 27 13 6 3 4 5 5 5 4 3 2 2 2 2 2 3 4 4 5 4 3 10 10 8 7 7 7 8 10 10 10 10 13 16 19 22 23 20 16 14 16 16 14 12
68 68 68 66 62 56 48 39 30 21 16 13 10 8 7 8 8 9 10 9 8 7 6 6 11 20 34 43 44 40 33 35 42 50 58 63 68 72 72 72 71 68 62 35 16 4 2 3 3 4 4 3 2 2 2 2 2 2 4 6 6 6 4 6 7 8 10 13 12 10 9 10 10 11 12 15 18 22 23 18 14 12 16 16 13 12
69 69 68 67 64 58 49 39 30 22 16 13 10 8 6 7 8 8 8 7 6 6 9 20 36 52 65 69 69 66 62 64 68 72 74 73 72 72 72 72 72 71 68 47 24 6 2 2 3 3 3 3 2 2 2 2 3 5 7 8 7 6 6 10 12 14 18 19 18 16 14 14 12 12 12 15 18 21 21 16 11 9 12 14 12 11
69 69 69 68 66 60 50 40 31 23 17 13 10 7 6 6 6 6 5 5 8 18 34 52 64 71 72 72 72 72 72 73 73 73 72 72 72 72 72 72 71 70 67 46 23 6 2 2 3 3 3 3 3 2 2 3 6 9 13 13 10 8 6 10 14 16 16 16 16 18 20 18 16 16 16 17 19 20 19 15 10 8 9 13 12 12
69 70 69 69 68 63 52 40 31 24 18 14 10 8 6 6 4 4 4 11 25 44 65 72 73 72 72 72 72 72 72 73 73 72 72 72 72 71 71 71 69 64 54 32 16 5 2 2 3 4 4 4 3 3 2 4 9 14 17 18 16 12 7 11 14 16 16 16 16 18 22 21 21 20 20 21 22 22 21 16 12 11 18 26 24 18
70 70 70 69 68 63 53 40 30 22 18 15 12 10 7 5 4 6 11 27 46 62 71 71 72 72 71 71 72 72 73 73 72 72 72 72 71 71 70 68 62 51 36 21 10 4 4 6 6 6 7 6 5 4 3 6 12 16 18 18 16 13 10 15 18 18 17 16 17 20 24 24 24 24 23 24 25 26 24 19 18 24 41 48 42 30
Wind_Speed
25 25 25 26 26 27 29 30 32 34 35 37 39 41 44 46 48 51 53 56 58 60 62 64 66 68 70 72 75 78 81 84 87 90 93 96 99 102 105 107 109 112 114 116 119 121 124 127 129 130 129 129 128 127 125 124 123 122 120 119 117 115 114 113 111 110 108 107 105 104 102 100 98 97 95 94 93 92 91 90 88 86 83 81 78 76
25 25 25 25 26 27 28 29 31 33 35 36 38 40 42 44 47 49 51 54 56 58 60 62 64 65 67 70 72 75 78 81 84 88 91 94 97 100 102 105 107 110 112 114 117 119 122 125 128 129 129 129 128 127 125 124 123 122 121 119 118 116 115 113 112 110 109 107 106 104 102 101 99 97 96 95 93 92 91 90 89 87 85 83 81 78
25 24 25 25 25 26 27 29 31 33 34 36 38 39 41 43 45 47 49 51 54 56 58 60 62 63 65 68 70 73 76 79 82 85 88 91 94 97 100 102 105 107 110 112 115 117 120 123 126 128 129 128 128 127 126 125 124 123 122 120 119 117 115 114 112 111 109 108 107 105 103 101 99 98 96 95 94 93 92 91 90 89 86 84 82 80
24 24 24 25 25 26 27 29 30 32 33 35 37 38 40 42 44 46 48 50 52 54 56 57 59 61 64 66 68 71 73 76 79 82 85 88 91 94 97 100 102 105 108 110 113 115 118 121 124 127 128 128 128 127 126 126 125 124 122 121 120 118 116 115 113 112 110 109 107 106 104 102 100 98 97 96 95 94 92 91 91 89 88 85 83 81
23 23 24 24 25 26 27 28 29 31 33 34 36 38 39 41 43 45 46 48 50 52 54 55 57 59 62 64 66 68 71 74 76 79 82 85 88 91 94 97 100 103 106 108 111 114 116 119 123 126 128 128 129 128 127 126 125 124 123 122 120 119 117 115 114 112 111 109 108 106 104 103 101 99 98 97 95 94 93 92 91 90 88 86 84 82
23 23 23 24 24 25 26 28 29 30 32 34 35 37 39 40 42 43 45 46 48 50 52 54 55 58 60 62 64 67 69 71 74 77 79 82 85 88 91 95 98 101 104 107 109 112 115 118 121 124 127 128 129 129 128 127 126 125 124 122 121 119 117 116 114 113 111 110 109 107 105 103 102 100 98 97 96 95 93 92 91 90 89 87 85 83
22 22 22 23 24 25 26 27 28 30 31 33 35 36 38 39 41 42 44 46 47 49 50 52 54 56 57 60 62 65 67 69 72 74 77 80 83 86 89 92 95 99 102 105 108 110 113 116 119 122 125 127 128 128 128 128 127 126 124 123 121 120 118 116 115 113 112 111 109 108 106 104 102 101 99 98 97 95 94 93 92 91 89 88 86 84
20 21 22 23 23 25 25 27 28 29 31 32 34 36 37 39 40 42 43 45 46 47 49 50 52 54 56 58 60 62 65 67 69 72 74 77 80 83 86 90 93 96 99 102 105 108 111 114 117 120 123 126 127 128 128 128 127 126 125 123 122 120 119 117 115 114 112 111 110 109 107 105 103 101 100 98 97 96 94 93 92 91 90 88 86 84
18 20 21 22 23 24 25 26 27 29 30 32 33 35 37 38 40 41 42 43 45 46 48 49 50 52 54 57 59 61 63 65 67 69 72 75 77 81 84 87 90 94 97 100 103 106 109 112 115 118 121 124 126 127 128 128 127 126 125 124 122 121 119 118 116 114 113 112 111 109 108 106 104 102 100 99 98 96 95 94 93 92 90 88 86 84
17 19 21 21 22 23 24 25 27 28 30 31 33 34 36 37 39 40 41 43 44 46 47 48 50 51 53 55 57 59 61 63 65 67 70 72 75 78 81 84 88 91 94 97 100 104 107 110 113 116 119 122 125 126 127 128 127 127 126 124 123 121 120 118 116 115 114 112 111 110 108 107 105 103 101 100 98 97 95 94 93 92 91 89 87 85
16 18 20 20 21 22 23 24 26 28 29 30 32 33 35 37 38 40 41 42 44 45 46 47 49 50 52 53 55 57 59 61 63 65 67 70 73 76 79 82 85 88 92 95 98 102 105 108 111 114 117 120 123 125 127 127 127 127 126 125 123 122 120 118 117 115 114 113 112 111 109 107 105 103 102 100 99 97 96 95 93 92 91 90 88 85
14 16 18 19 20 21 22 24 25 27 28 29 31 33 35 37 38 40 41 42 43 44 46 47 48 49 51 52 54 56 58 59 61 63 65 67 70 73 76 79 82 86 89 93 96 99 103 106 109 112 115 118 121 124 125 127 127 127 126 125 124 122 121 119 117 116 115 114 113 112 110 108 106 104 102 101 99 98 96 95 94 93 92 91 89 86
13 15 17 18 19 20 22 23 24 26 27 29 31 32 34 36 38 39 41 42 43 44 45 46 47 48 50 52 53 55 56 58 60 62 63 65 68 70 73 76 79 83 86 90 94 97 101 104 107 110 113 116 119 122 124 126 127 127 127 126 125 123 121 120 118 116 115 115 114 112 111 109 107 105 103 101 100 99 97 95 93 93 93 92 90 87
12 13 15 17 19 20 21 22 24 25 27 29 30 32 34 35 37 39 40 41 43 44 45 45 46 47 49 50 52 53 55 57 58 60 61 63 66 69 71 74 77 81 84 87 91 95 99 102 105 108 111 114 118 120 123 125 126 127 127 126 125 124 122 120 119 117 116 115 114 113 111 109 107 105 104 102 101 99 98 96 94 94 93 92 90 87
12 12 14 16 18 19 21 22 23 25 26 28 29 31 33 35 37 38 40 41 42 43 44 45 46 47 48 49 51 52 54 55 56 58 59 62 64 67 69 71 75 78 81 85 88 93 97 100 103 106 110 112 115 118 121 123 125 126 127 127 126 124 123 121 119 118 117 116 115 114 112 110 108 106 105 103 101 100 98 97 95 94 93 92 91 88
12 12 13 15 17 19 20 22 23 24 26 27 29 30 32 34 36 38 40 41 42 43 44 44 45 46 47 49 50 51 52 54 55 56 58 60 62 64 66 69 71 75 78 82 86 90 94 98 101 105 108 111 114 117 120 122 124 126 127 127 126 125 123 122 120 119 117 116 115 114 113 111 109 108 106 104 102 101 99 98 95 93 92 93 91 88
12 12 12 14 16 19 20 22 23 24 26 27 28 30 32 34 36 38 39 41 42 43 44 44 45 45 46 48 49 50 51 52 54 56 57 58 60 62 64 67 69 72 75 79 83 87 91 95 99 102 106 109 112 115 118 121 123 125 126 126 126 125 124 122 121 119 118 117 116 115 113 112 110 109 107 105 102 101 99 98 97 94 92 92 92 89
12 12 12 14 16 18 20 21 23 24 25 27 28 30 32 34 35 37 39 40 41 43 44 44 45 46 46 47 48 50 51 52 53 54 55 56 59 61 63 65 68 70 73 77 81 84 88 92 97 100 104 107 111 114 116 119 122 124 125 126 126 125 124 123 121 120 119 117 116 115 113 112 111 109 107 105 103 101 100 99 98 96 94 93 92 90
13 12 12 13 15 17 19 21 23 24 25 27 28 29 31 33 35 37 38 40 41 43 43 44 45 46 46 47 48 50 50 51 52 52 53 55 57 59 61 63 65 68 71 74 78 82 86 90 94 98 102 105 109 112 115 118 120 123 124 125 126 125 124 123 122 120 119 118 116 115 114 113 111 110 108 106 103 102 100 99 98 96 94 93 92 90
13 12 12 13 14 16 19 21 23 24 26 27 28 29 31 32 34 36 38 40 41 42 43 44 45 45 46 47 48 48 49 50 50 51 53 54 56 58 60 62 64 66 68 72 75 79 83 87 91 95 99 103 107 110 113 116 119 121 123 124 125 125 124 123 122 121 119 118 117 115 114 113 112 110 108 106 104 103 101 100 98 97 95 93 92 89
13 13 12 12 13 15 18 20 23 24 26 27 28 29 30 32 34 35 37 39 41 42 43 44 45 45 46 47 47 47 48 49 49 50 52 53 54 56 59 61 62 64 67 70 73 77 80 84 89 93 97 101 105 108 112 115 117 120 122 123 124 124 124 124 122 121 120 118 117 116 115 114 112 110 109 107 105 103 102 100 98 97 95 94 92 89
13 13 13 13 13 14 17 19 22 24 26 27 28 29 30 31 33 35 37 39 40 42 43 44 45 46 46 46 47 47 47 48 49 50 51 51 52 55 58 59 61 63 65 68 71 74 78 82 86 90 94 98 103 106 110 113 116 118 120 122 123 124 124 124 123 122 120 119 117 116 115 113 112 110 109 107 105 104 102 100 99 97 96 94 92 90
13 13 13 13 13 14 16 18 21 23 25 27 28 29 30 31 33 34 36 38 40 42 43 44 45 45 45 46 46 47 47 47 48 49 49 50 52 54 57 58 59 61 63 66 69 72 75 79 83 87 92 96 100 104 108 111 114 117 119 120 122 123 123 124 123 122 121 119 118 116 115 114 112 111 109 107 106 104 103 101 99 98 96 95 93 91
12 12 13 13 13 14 15 17 20 22 25 27 28 29 30 31 33 34 36 38 40 41 43 43 44 44 45 45 46 46 47 47 47 48 48 49 51 53 55 57 58 60 62 65 68 70 73 76 80 84 89 93 97 102 106 110 113 116 117 119 120 121 123 123 123 122 121 120 118 117 115 114 113 111 109 107 106 105 103 101 100 98 97 95 93 91
12 12 12 13 13 14 15 17 19 21 24 26 28 29 30 31 33 34 35 37 39 40 41 42 43 44 45 46 46 46 47 47 47 47 48 49 50 51 53 55 57 59 61 64 66 69 71 74 78 82 85 90 94 99 104 108 111 114 116 118 119 120 121 122 123 123 122 120 119 117 116 115 113 111 109 108 107 105 103 102 100 98 97 95 94 92
11 11 11 12 12 13 15 16 18 20 23 25 27 29 31 32 33 34 35 36 38 40 41 42 43 44 45 45 46 46 47 47 47 47 48 48 48 49 52 55 57 58 60 62 64 67 69 72 75 79 83 87 92 97 101 106 110 113 115 117 118 119 120 122 122 123 122 120 119 118 116 115 113 111 109 108 108 106 104 102 100 99 97 96 94 93
11 10 10 11 11 13 14 16 18 20 22 25 27 29 31 32 33 34 35 36 38 39 41 42 43 44 44 45 45 46 46 46 46 47 47 46 47 48 51 54 56 57 58 61 63 66 68 70 73 76 80 85 90 94 99 104 108 112 114 116 117 118 119 121 122 122 122 121 119 118 116 114 112 111 110 109 108 107 104 102 100 99 98 96 95 94
11 10 9 10 10 11 13 15 17 19 21 24 26 29 31 32 33 34 35 37 38 39 40 41 42 43 44 44 45 45 46 46 46 46 46 45 46 47 50 53 55 56 57 60 62 65 67 69 72 75 78 83 87 92 97 102 106 110 113 115 116 117 118 119 121 122 122 121 120 118 116 114 112 111 111 110 108 106 104 102 100 99 98 97 96 94
10 9 8 8 9 10 12 14 16 18 20 23 26 28 30 32 33 34 35 36 37 37 39 40 41 42 43 44 44 44 45 45 46 45 45 44 45 47 49 51 53 55 57 59 61 63 65 67 70 73 76 80 85 89 94 99 104 108 112 114 115 116 117 118 120 121 121 121 120 118 117 114 112 110 110 110 109 107 104 102 100 100 99 98 96 95
10 8 8 7 7 8 10 12 14 16 19 22 25 27 30 32 34 35 35 36 36 37 38 39 40 41 42 42 43 43 44 45 45 44 44 44 44 46 48 49 51 54 56 57 59 61 63 66 68 71 74 78 82 87 92 97 102 106 110 113 114 115 116 117 119 120 121 121 120 119 117 114 112 110 108 109 109 107 105 102 100 100 99 98 97 96
10 8 7 7 6 7 8 10 12 14 17 20 23 26 29 31 33 34 35 35 36 36 37 37 38 40 40 41 42 43 44 44 44 43 43 44 44 45 47 48 51 53 55 56 58 60 63 65 67 70 73 76 80 85 90 94 99 104 108 111 113 115 116 117 118 119 120 120 120 119 118 116 113 110 107 108 109 108 105 103 101 100 99 98 97 96
10 7 6 5 5 5 6 7 9 12 14 17 21 24 27 30 33 34 35 35 36 36 36 36 37 38 39 40 41 42 43 43 43 43 43 43 44 45 46 48 50 51 54 56 59 61 63 65 67 69 71 74 78 83 87 92 97 101 106 110 112 114 115 116 117 118 120 120 120 119 118 116 115 111 106 106 107 108 106 104 102 100 99 98 97 95
10 8 6 4 4 4 4 5 7 9 12 15 18 21 25 28 31 33 35 35 35 35 35 36 36 37 38 39 40 41 42 42 42 42 42 43 44 44 46 47 49 50 52 55 58 60 62 64 66 68 70 73 77 81 85 89 94 99 104 108 111 113 115 116 116 118 119 120 120 119 118 117 115 112 106 102 104 107 107 105 103 101 99 98 97 95
10 8 6 4 3 2 3 4 5 7 9 12 15 18 22 26 29 32 34 35 35 35 35 35 35 36 37 37 38 39 40 40 41 41 42 42 43 44 45 46 48 49 51 54 56 59 61 63 65 67 69 72 75 79 82 87 91 97 102 106 110 112 114 115 116 117 118 119 120 119 119 117 116 114 109 101 102 106 107 106 103 101 99 98 96 95
11 9 7 5 3 2 1 2 4 5 7 10 12 16 19 23 27 30 33 34 35 35 35 35 35 35 36 37 37 38 39 40 40 40 41 42 43 44 44 46 47 49 51 53 56 58 60 62 64 67 68 70 73 76 80 85 90 95 100 105 109 111 113 114 115 116 118 119 119 119 118 117 116 114 111 103 102 105 107 106 104 101 99 98 96 95
12 9 7 5 4 2 0 1 3 4 6 8 10 13 17 21 24 28 31 33 35 35 35 35 35 35 36 36 37 38 38 38 39 40 41 42 42 43 44 45 47 49 51 53 56 58 61 63 65 67 68 70 72 75 79 83 88 92 97 102 107 110 112 114 115 116 117 118 118 119 118 117 116 114 112 107 105 106 108 106 103 101 99 98 96 94
13 10 8 6 4 3 1 1 2 3 5 7 9 12 15 18 22 26 29 32 34 35 35 35 35 35 36 36 36 37 37 38 38 39 40 41 42 43 44 45 47 49 51 54 56 58 61 63 64 66 67 69 72 74 78 82 86 90 94 100 104 108 111 113 114 115 116 117 118 119 119 117 116 114 112 108 108 109 109 106 103 101 99 98 96 94
14 11 9 7 5 4 3 2 2 2 4 6 8 10 13 16 20 23 27 30 33 34 35 35 36 36 36 36 36 36 37 37 38 39 40 41 42 43 44 46 47 50 52 55 57 59 60 62 64 66 67 69 72 75 78 81 84 88 93 99 103 107 109 111 113 114 114 116 118 119 119 117 116 114 112 110 109 110 109 106 103 101 99 98 96 94
16 13 11 9 7 5 4 3 2 2 3 4 6 8 11 14 17 21 24 28 31 33 34 35 36 36 36 36 36 37 37 37 38 39 40 41 42 43 45 46 48 50 53 55 57 59 61 62 64 66 68 69 71 74 77 80 83 87 92 97 101 105 108 110 112 112 113 115 117 118 118 117 115 113 112 110 110 110 109 105 103 101 100 98 96 94
18 16 13 11 9 7 6 4 3 2 3 4 5 7 9 12 15 18 22 25 29 31 33 35 35 36 36 36 36 37 37 37 37 38 39 41 42 44 45 47 49 51 53 55 56 58 60 62 64 66 68 70 72 74 76 79 82 87 91 94 98 102 106 109 110 112 113 114 116 117 117 116 114 112 110 109 108 107 106 105 103 102 100 99 97 95
21 18 16 14 11 9 7 6 4 3 3 4 5 6 8 11 13 16 20 23 26 29 31 33 34 34 35 35 36 36 36 36 36 37 39 40 42 44 45 47 49 51 53 55 56 58 60 62 64 66 68 70 72 74 76 79 82 85 89 92 97 102 106 108 109 110 112 114 115 117 118 115 112 111 109 106 103 102 104 104 103 101 101 99 98 95
23 21 18 16 14 12 10 7 6 4 4 4 5 6 8 10 13 15 18 21 24 26 29 30 31 32 32 33 33 33 33 34 34 36 37 39 41 43 45 46 48 51 53 55 56 59 60 62 64 66 68 70 72 74 76 79 82 85 88 92 97 101 105 107 109 110 111 113 114 118 123 116 111 109 107 102 98 98 102 104 103 101 100 99 97 95
24 22 19 17 15 13 11 9 7 5 4 5 5 7 8 10 12 15 17 20 22 24 26 27 28 29 29 29 29 29 30 31 32 33 35 36 38 40 42 45 47 49 52 54 56 58 60 62 64 66 68 70 72 74 76 78 81 83 87 91 94 97 100 104 107 109 111 112 113 114 114 113 111 110 107 102 98 98 102 103 102 100 99 98 96 93
24 23 20 18 16 14 12 10 7 6 5 5 6 7 9 10 12 14 17 19 21 23 24 25 26 26 26 26 26 26 27 27 28 30 31 32 34 36 38 40 43 46 49 52 54 57 59 61 63 65 67 69 72 74 76 78 80 83 86 89 92 95 99 103 106 108 109 111 112 112 113 112 111 111 109 106 104 102 104 103 101 99 98 96 95 92
24 23 21 19 17 14 12 10 8 6 5 5 6 8 10 11 13 15 17 19 21 22 23 24 24 24 24 24 24 25 25 26 27 28 28 28 29 29 30 32 35 39 43 47 51 54 57 59 61 63 66 68 71 73 76 78 80 82 84 87 90 94 99 103 106 107 108 110 111 111 114 113 111 110 109 108 106 105 104 102 100 98 96 95 93 91
24 23 22 20 17 15 13 10 7 5 5 5 6 8 10 12 14 16 18 20 22 23 24 25 26 26 26 26 26 27 28 29 30 30 30 29 28 27 26 25 26 29 34 41 47 51 55 57 60 62 65 67 70 72 75 77 79 81 82 85 88 92 96 98 101 104 106 107 108 109 112 112 110 109 108 108 106 104 102 101 99 98 95 94 92 91
23 23 22 20 18 15 13 10 7 5 4 5 7 9 12 14 16 18 20 22 24 25 27 28 29 28 27 25 25 27 31 34 35 35 33 31 29 26 24 23 23 25 30 37 43 49 53 57 60 62 64 67 69 71 74 76 77 79 81 83 87 90 92 94 97 101 104 104 103 105 109 109 108 108 108 107 105 102 100 99 98 97 95 93 92 90
22 22 22 21 19 16 13 10 7 5 4 5 8 10 13 16 18 21 23 25 27 29 30 31 29 27 23 21 22 26 32 36 38 37 32 28 24 21 20 21 24 27 32 37 42 47 51 55 58 61 64 66 68 70 73 74 76 78 80 82 85 88 90 93 97 100 101 100 101 102 105 106 106 106 105 104 103 101 99 98 97 96 94 92 91 89
21 21 21 20 19 16 13 10 7 4 4 6 8 11 14 17 20 23 25 28 31 32 32 30 27 23 20 20 24 29 34 37 36 32 26 20 17 16 17 20 25 30 34 37 40 44 48 52 56 60 62 64 67 69 71 73 75 76 78 80 82 84 88 92 95 98 100 101 101 101 102 104 105 104 103 102 101 99 98 97 96 94 92 90 89 88
20 20 20 19 18 16 13 9 6 4 4 6 9 12 15 19 22 25 29 32 34 34 32 27 24 21 21 24 27 31 33 33 29 23 18 15 14 15 18 23 27 31 33 35 37 40 44 48 52 56 59 62 65 67 69 71 73 75 77 78 79 82 86 89 92 94 96 99 99 99 100 102 103 102 100 99 99 98 96 95 93 91 89 88 87 86
19 19 19 18 17 15 12 9 6 4 5 7 10 14 17 21 25 29 33 35 35 33 29 26 24 24 25 27 29 30 29 25 20 16 14 14 16 19 22 26 28 30 31 33 36 39 42 45 48 52 56 59 63 65 67 70 72 75 77 79 81 82 84 86 90 93 95 96 97 98 99 100 100 99 99 98 97 95 94 93 91 89 86 85 85 85
Wind_Direction
232 231 230 228 226 224 222 220 219 217 216 215 214 213 213 212 212 212 212 212 212 212 212 212 212 212 213 213 213 213 213 213 212 212 212 212 212 212 212 211 211 210 210 209 208 207 206 205 205 205 205 205 205 205 206 206 206 207 207 207 208 208 208 208 208 208 208 208 207 207 207 206 206 207 207 208 208 208 208 208 208 208 208 208 209 210
234 231 230 229 227 224 222 221 219 217 216 215 214 213 212 212 212 212 212 212 212 212 212 212 212 212 213 213 213 213 213 213 212 212 212 212 212 212 212 212 211 211 210 209 208 207 206 206 205 205 205 205 205 205 206 206 206 207 207 207 207 207 208 208 208 208 208 208 207 207 207 206 206 206 207 208 208 208 208 208 208 208 208 208 209 210
237 233 230 229 227 224 223 221 219 218 216 214 214 213 212 212 211 211 211 212 212 212 212 212 212 212 213 213 213 213 213 213 213 212 212 212 212 212 212 212 212 211 211 210 209 208 207 206 205 205 204 204 205 205 205 206 206 206 207 207 207 207 207 207 208 208 208 208 207 207 207 206 206 206 207 208 208 208 208 208 208 209 209 208 209 210
242 236 232 229 227 225 223 221 220 218 216 215 214 213 212 211 211 211 211 211 211 211 212 212 212 212 212 213 213 213 213 213 213 213 213 213 212 212 212 212 212 212 211 210 209 208 207 206 205 204 204 204 204 204 205 205 206 206 206 207 207 207 207 207 207 208 208 208 207 207 206 206 206 206 207 207 208 208 208 208 209 209 209 209 209 211
246 240 234 231 228 226 224 222 220 218 216 214 213 213 212 211 211 210 210 210 210 211 211 211 212 212 212 213 213 213 213 213 213 213 213 213 213 213 213 212 212 212 211 211 210 208 207 206 205 204 204 204 204 204 204 205 205 206 206 206 206 206 206 207 207 207 207 207 207 207 206 206 206 206 206 207 208 208 208 208 209 209 209 209 209 211
249 244 237 232 229 227 224 222 220 218 216 214 213 212 212 211 210 210 210 210 210 210 210 211 211 212 212 212 213 213 213 213 213 213 213 213 213 213 213 213 212 212 212 211 210 209 208 206 205 205 204 204 204 204 204 205 205 205 206 206 206 206 206 206 207 207 207 207 207 207 206 206 206 206 206 207 207 208 208 208 208 209 209 209 210 211
251 246 240 234 230 227 225 223 221 218 216 214 213 212 212 211 210 209 209 209 209 209 210 210 211 211 212 212 212 213 213 213 213 213 213 213 213 213 213 213 213 212 212 211 210 209 208 207 206 205 204 204 203 204 204 204 205 205 205 206 206 206 206 206 206 207 207 207 207 207 206 206 206 206 206 206 207 208 208 208 208 209 209 210 210 211
252 248 242 236 231 227 225 223 221 219 216 214 213 212 211 210 210 209 209 209 209 209 209 209 210 210 211 212 212 212 212 212 213 213 213 213 213 213 213 213 213 213 212 212 211 210 209 207 206 205 204 204 204 204 204 204 204 205 205 205 205 206 206 206 206 206 207 207 207 207 206 206 206 205 206 206 207 207 208 208 208 209 209 210 210 211
251 247 243 237 231 227 224 223 221 219 216 214 213 212 211 210 209 209 208 208 208 208 208 208 209 210 210 211 212 212 212 212 213 213 213 213 213 213 213 213 213 213 212 212 211 210 209 208 207 206 205 204 204 204 204 204 204 204 205 205 205 205 205 206 206 206 206 207 207 207 206 206 206 205 205 206 206 207 207 208 208 209 209 210 210 211
252 247 243 238 232 227 224 222 221 219 217 214 213 212 211 210 209 209 208 208 208 208 207 207 208 209 210 211 211 211 212 212 212 213 213 213 213 214 214 213 213 213 213 212 212 211 210 209 207 206 205 204 204 204 204 204 204 204 204 205 205 205 205 205 206 206 206 207 207 207 206 206 206 205 205 206 206 207 207 207 208 209 209 210 210 211
255 248 243 238 232 227 224 222 221 219 217 215 213 212 211 210 209 208 208 207 207 207 207 207 208 208 209 210 210 211 211 212 212 212 213 213 213 213 213 213 213 213 213 212 212 211 210 209 208 207 205 205 204 204 204 204 204 204 204 204 205 205 205 205 205 206 206 206 206 206 206 206 206 205 205 205 206 206 207 207 208 208 209 209 210 211
263 252 245 239 233 228 224 222 221 219 217 215 213 212 211 211 210 209 208 207 207 207 206 207 207 208 208 209 210 210 211 211 212 212 213 213 213 214 213 213 213 213 213 212 212 211 211 210 208 207 206 205 204 204 204 203 203 203 204 204 204 204 205 205 205 206 206 206 206 206 206 206 205 205 205 205 206 206 206 207 208 208 209 209 209 211
272 257 248 240 234 229 225 222 220 219 217 215 213 212 211 210 210 209 208 208 207 207 206 206 207 208 208 209 209 210 210 211 211 212 212 213 213 213 214 213 213 213 213 212 212 212 211 210 209 208 206 205 205 204 204 203 203 203 203 204 204 204 204 205 205 205 206 206 206 206 206 206 205 205 205 205 206 206 206 206 207 208 209 209 209 210
281 263 251 242 236 230 226 222 220 218 217 215 214 212 212 211 210 209 208 208 208 207 207 206 207 207 208 208 209 209 210 210 211 211 212 212 213 213 213 213 213 213 213 212 212 212 211 211 210 208 207 206 205 204 204 203 203 203 203 203 203 204 204 204 205 205 206 206 206 206 206 205 205 205 205 205 205 206 206 206 207 208 208 209 209 210
288 269 254 244 237 231 227 223 220 218 217 216 214 213 212 211 210 209 208 208 208 207 207 207 207 207 208 208 208 209 209 210 210 211 211 212 213 213 213 213 213 213 213 212 212 212 212 211 210 209 208 206 205 204 204 204 203 203 203 203 203 203 204 204 205 205 205 206 206 206 205 205 205 205 205 205 205 205 206 206 207 208 208 209 209 210
294 275 258 246 238 233 228 223 220 218 217 215 214 213 212 211 211 210 209 208 208 207 207 207 207 208 208 208 208 208 208 209 210 210 211 212 212 213 213 213 213 213 212 212 212 212 212 211 210 209 208 207 206 205 204 204 203 203 203 203 203 203 204 204 204 205 205 206 206 206 205 205 205 205 205 205 205 205 206 206 207 207 208 209 209 210
299 283 263 249 240 234 229 224 220 218 216 215 214 213 212 211 211 210 209 208 208 207 207 207 207 207 208 209 208 208 208 208 209 210 210 211 212 213 213 213 213 213 212 212 212 212 212 211 211 210 209 207 206 205 204 204 203 203 203 202 203 203 203 204 204 205 205 205 206 206 205 205 205 205 204 204 204 205 205 206 206 207 208 208 209 210
301 288 270 254 242 235 230 225 221 219 217 215 214 213 212 212 211 210 209 208 208 208 207 207 207 208 208 208 208 208 208 208 209 209 210 210 211 212 212 212 212 212 212 212 212 212 211 211 211 210 209 208 207 206 205 204 203 203 203 202 202 203 203 203 204 204 205 205 205 205 205 205 205 205 204 204 204 205 205 206 206 207 207 208 209 209
299 291 277 261 247 237 231 227 222 220 217 216 215 213 212 212 211 210 209 209 208 208 208 208 208 208 209 209 208 208 208 208 208 209 209 210 211 212 212 212 212 212 212 212 212 211 211 211 211 210 209 208 207 206 205 204 204 203 203 202 202 202 203 203 204 204 205 205 205 205 205 205 205 205 204 204 204 204 205 206 206 207 207 208 209 209
295 289 280 267 252 241 234 228 224 221 218 217 215 214 213 212 211 210 210 209 209 209 208 208 208 209 209 209 209 208 208 208 208 208 209 209 210 211 211 211 211 212 212 212 211 211 211 211 210 210 210 209 208 206 205 204 204 203 203 202 202 202 202 203 203 204 204 205 205 205 205 205 205 205 204 204 204 204 205 206 206 206 207 207 208 208
289 286 280 270 257 246 237 230 226 222 219 217 216 215 213 212 211 211 210 210 209 209 209 209 209 209 210 210 209 209 208 208 208 208 209 209 210 210 211 211 211 211 211 211 211 211 211 210 210 210 210 209 208 207 206 205 204 203 203 202 202 202 202 203 203 204 204 205 205 205 205 205 205 205 204 204 204 205 205 205 206 206 207 207 207 208
286 281 278 270 261 250 241 233 228 223 220 218 216 215 214 213 212 211 210 210 209 209 209 209 209 210 210 210 210 209 208 208 208 208 208 209 210 210 211 211 210 210 211 211 211 211 210 210 210 209 209 209 208 207 206 205 204 203 203 203 202 202 202 202 203 203 204 204 205 205 205 205 205 205 205 205 205 205 205 205 206 206 206 207 207 207
285 279 274 269 261 252 244 236 230 225 221 218 217 215 214 213 212 211 210 210 210 209 209 210 210 210 210 210 210 210 209 209 208 208 208 209 210 211 211 210 210 210 211 211 211 211 210 209 209 209 209 209 208 207 206 205 204 204 203 203 202 202 202 202 202 203 203 204 204 205 205 205 205 205 205 205 205 205 205 205 206 206 206 207 207 207
286 277 271 265 259 253 245 238 232 227 222 219 217 215 214 213 212 211 211 210 210 210 210 210 210 211 211 211 211 211 210 209 209 209 209 209 210 211 211 210 210 210 211 211 211 210 210 209 209 209 208 208 208 207 206 205 205 204 203 203 203 202 202 202 202 202 203 203 204 204 205 205 205 205 205 205 205 205 205 205 206 206 206 207 207 207
290 278 270 263 257 252 246 240 234 228 223 219 217 215 214 213 213 212 212 211 211 210 210 210 210 211 211 211 211 211 211 210 209 209 209 210 211 211 211 210 210 210 210 211 211 210 209 209 208 208 208 208 208 207 206 206 205 204 203 203 203 203 202 202 202 202 202 203 203 204 204 205 205 205 205 205 205 205 205 205 206 206 206 207 207 207
294 280 270 262 256 251 245 240 235 229 224 220 217 215 214 213 212 211 211 211 211 210 210 210 211 211 212 212 212 212 212 211 210 210 210 210 211 212 212 211 210 210 210 210 210 210 209 208 208 208 207 207 207 207 206 206 205 204 204 203 203 203 202 202 202 202 202 202 203 203 204 204 205 205 205 205 205 205 205 205 205 206 206 207 207 207
297 283 272 262 256 249 245 241 236 230 225 221 217 215 214 212 212 211 211 211 210 210 210 210 211 211 212 212 213 213 212 212 211 211 210 210 211 212 212 211 210 210 210 210 210 209 208 208 207 207 207 207 207 207 206 206 205 204 204 203 203 203 202 202 202 202 202 202 202 203 203 204 204 205 205 205 205 205 204 204 205 206 206 207 207 207
300 286 273 264 256 249 245 240 236 232 227 222 218 215 213 212 211 211 211 211 210 209 209 210 210 211 212 212 213 213 213 213 212 211 211 211 212 213 213 212 211 210 210 210 210 209 208 207 207 206 206 206 206 206 206 205 205 204 204 203 203 203 202 202 202 202 201 202 202 202 203 203 204 204 205 205 205 205 204 204 205 205 206 207 207 207
304 290 277 266 257 250 245 241 237 233 228 223 219 216 213 212 211 211 211 210 210 209 210 210 210 211 212 213 213 214 214 214 213 212 211 211 213 214 214 212 211 210 209 209 209 208 207 207 206 206 206 205 205 205 205 205 205 204 204 203 203 203 202 202 202 201 201 201 202 202 202 202 203 204 205 205 205 204 204 204 204 205 206 206 207 207
311 297 283 271 260 252 246 242 238 234 230 225 220 216 214 212 212 211 211 210 210 209 209 210 210 211 212 213 213 214 215 215 214 212 212 212 213 214 214 212 211 210 209 209 208 208 207 207 206 206 205 205 205 205 205 205 204 204 204 203 203 203 202 202 202 201 201 201 201 201 202 202 202 203 204 205 205 205 204 204 204 205 206 206 207 207
321 308 293 279 267 257 249 244 240 236 232 227 222 218 215 213 212 211 210 210 209 209 209 209 210 211 211 212 213 214 215 215 214 212 212 212 213 214 213 212 210 209 208 208 207 207 206 206 206 205 205 204 204 204 204 204 204 204 203 203 203 203 202 202 202 201 201 201 201 201 201 201 202 202 203 205 205 205 204 204 204 205 206 206 206 207
331 320 306 290 274 262 252 246 241 238 234 229 224 220 216 213 212 211 210 209 209 209 209 209 209 210 211 212 213 214 215 214 213 212 212 212 213 213 213 211 210 208 207 207 206 206 205 205 205 204 204 204 203 203 203 203 203 203 203 203 203 202 202 202 201 201 201 201 201 201 201 201 201 201 202 205 206 205 204 204 204 205 205 206 206 206
341 334 325 309 288 268 254 244 240 237 234 230 226 221 217 214 212 210 209 209 208 208 208 208 209 209 210 211 212 213 214 214 213 212 212 212 213 213 212 210 208 207 206 206 206 205 204 204 204 203 203 203 203 203 202 202 203 203 203 203 203 202 202 202 201 201 201 201 201 201 201 201 201 200 200 203 205 206 205 204 204 204 205 206 206 206
349 346 342 333 314 283 255 241 234 232 231 229 226 222 218 214 212 210 208 208 208 207 207 207 208 208 209 210 211 212 213 213 212 211 211 211 212 211 211 209 207 205 204 204 204 204 203 203 203 203 202 202 202 201 201 202 202 202 202 202 202 202 202 201 201 201 201 201 200 200 200 201 201 200 199 201 204 206 205 204 204 204 205 205 206 206
356 355 355 352 345 324 265 233 224 223 224 224 223 221 218 214 211 208 207 206 206 206 206 206 207 207 207 208 209 210 211 211 210 210 210 210 210 210 209 207 205 204 203 202 202 202 202 202 202 202 202 201 201 200 200 201 201 201 202 202 202 202 202 201 201 201 201 200 200 200 200 200 200 200 199 200 203 205 205 204 203 204 204 205 206 206
2 2 4 5 7 8 350 212 208 210 214 216 218 218 216 213 210 207 205 204 204 204 205 205 205 206 206 207 208 209 209 208 208 208 208 209 208 208 207 205 203 202 201 201 201 201 200 200 200 201 200 200 199 199 199 200 200 200 201 201 201 201 201 201 201 201 201 200 200 200 200 200 200 200 199 200 203 205 205 203 202 203 204 205 205 206
7 7 9 12 18 25 46 127 181 194 201 207 211 213 214 212 209 206 203 202 202 202 202 203 203 204 204 205 206 207 207 206 206 206 207 207 206 206 205 203 202 200 200 199 199 199 199 199 199 199 199 198 198 198 198 199 199 199 200 200 201 201 201 201 201 201 201 200 200 200 200 200 200 199 199 200 203 204 204 202 202 202 203 204 205 205
13 13 14 18 24 33 49 84 137 171 189 197 204 208 210 210 208 205 202 201 200 200 200 201 201 202 203 203 204 205 205 205 205 205 205 204 204 204 203 201 200 199 199 198 198 198 198 198 198 198 197 197 197 198 198 198 198 198 199 199 200 200 200 201 201 201 200 200 200 200 199 199 199 199 199 200 202 204 204 202 201 202 203 204 204 205
17 17 19 22 27 35 45 67 99 139 169 187 196 202 206 207 207 205 202 200 198 198 198 198 199 200 201 201 202 203 203 203 204 203 203 203 202 202 201 200 198 198 198 197 197 196 196 196 197 197 196 196 197 197 197 197 197 197 198 198 199 199 200 200 200 200 200 200 200 200 199 199 199 199 199 200 202 203 203 202 202 202 203 203 204 204
19 20 22 25 29 34 41 53 75 107 143 168 184 194 200 202 203 203 201 199 197 196 196 196 197 198 199 200 201 202 202 203 203 203 202 202 201 200 199 198 197 197 196 196 195 195 195 195 195 195 195 195 196 196 196 196 196 196 197 197 198 199 199 200 200 200 200 200 200 199 199 199 199 199 199 200 202 203 204 203 202 202 203 203 203 203
19 21 22 25 28 32 38 47 62 85 117 147 168 181 190 194 197 198 198 197 196 195 195 195 196 197 198 199 200 201 202 202 202 202 201 201 200 199 197 197 196 195 195 194 194 194 194 194 194 194 194 194 195 195 195 195 196 196 196 196 197 198 199 199 199 200 200 200 199 199 199 198 198 199 199 199 201 203 204 204 203 203 203 203 203 203
18 20 22 24 26 28 32 41 55 74 101 129 151 167 178 185 190 192 193 193 193 193 193 193 194 195 197 198 199 200 201 201 201 200 200 199 198 197 196 195 195 194 194 194 193 193 194 194 193 193 193 194 194 194 194 194 195 195 195 195 196 197 198 198 199 199 199 199 199 199 199 198 198 198 198 197 198 201 204 204 203 203 203 203 203 203
17 19 21 23 25 26 29 34 46 66 89 118 141 157 168 176 182 185 187 188 189 189 190 190 191 192 194 195 196 197 197 197 197 197 196 196 196 195 195 194 194 194 193 194 193 193 193 193 193 193 193 193 193 193 193 194 194 194 194 195 195 196 197 198 198 199 199 199 198 198 198 198 198 197 196 195 196 199 202 203 202 202 203 203 203 203
16 17 19 22 24 26 27 29 38 57 82 111 135 150 161 169 175 179 181 182 183 183 184 185 185 186 187 188 188 188 188 189 189 189 189 190 190 191 192 193 193 194 194 194 194 194 194 193 193 192 192 192 193 193 193 193 193 193 193 194 194 195 196 197 198 198 198 198 198 198 198 198 197 197 196 196 197 199 201 201 201 201 202 203 203 203
17 17 18 20 22 23 24 26 35 53 81 111 133 148 157 163 169 173 175 175 176 176 176 176 176 175 174 174 174 174 174 173 173 173 174 175 177 180 183 187 191 194 196 197 196 196 195 194 193 192 192 192 192 192 192 192 192 192 192 193 194 194 195 197 197 197 198 198 198 198 198 198 197 197 197 198 198 200 201 201 201 201 201 202 202 202
18 17 17 18 20 22 23 27 35 54 83 115 136 148 156 162 166 169 169 168 168 167 167 166 164 161 159 159 160 161 160 159 158 157 157 157 159 163 169 176 185 193 199 200 199 197 195 193 193 192 192 191 191 191 191 191 191 191 191 192 192 193 194 195 196 197 197 197 198 198 198 197 197 197 198 198 199 200 201 201 201 201 201 201 201 201
19 18 18 18 19 21 24 28 38 56 90 124 144 153 159 163 165 164 163 162 161 160 158 156 152 149 148 151 157 161 161 157 154 151 150 151 153 157 163 171 180 191 200 203 202 198 195 193 192 191 191 190 190 190 190 190 190 190 190 191 191 192 193 194 195 196 196 196 197 197 197 197 197 197 198 198 199 199 200 201 201 201 201 201 200 200
21 20 19 19 20 21 24 29 38 58 98 135 151 158 161 162 161 159 158 157 156 154 150 146 142 140 143 152 164 169 168 163 157 153 152 153 157 162 168 174 182 191 200 203 201 197 194 192 191 190 190 189 189 189 189 189 189 189 189 189 189 190 191 193 194 195 195 195 196 196 196 196 197 197 198 198 199 199 200 200 200 200 200 200 200 199
24 22 21 21 21 22 24 29 39 62 108 143 155 159 159 158 157 155 154 153 150 146 141 136 135 138 147 160 170 173 170 164 159 157 156 158 162 166 172 179 187 194 199 200 197 194 192 191 190 190 189 189 188 189 189 188 188 188 187 187 187 189 190 191 193 194 195 195 195 195 195 196 196 196 197 197 198 199 200 200 199 199 199 200 200 199
26 25 24 23 22 23 25 31 43 71 120 148 156 158 157 156 155 154 152 149 145 141 136 135 138 147 158 167 171 170 166 162 158 157 158 160 163 168 175 183 190 194 196 194 191 189 188 189 189 189 188 188 188 187 187 187 187 186 185 185 186 187 189 190 191 193 194 195 195 195 195 195 195 195 196 197 198 199 199 199 198 198 198 199 200 199
27 28 27 26 25 24 26 32 48 86 132 150 156 157 156 155 154 153 150 147 143 139 138 141 148 156 163 166 165 162 158 155 153 152 155 159 165 172 179 185 189 190 188 185 183 182 183 184 186 187 187 187 187 186 186 185 185 185 184 184 185 186 187 188 190 192 193 194 194 194 194 194 194 195 195 196 197 198 198 197 196 196 197 199 199 198